Location: Champvent
(46.7823°N, 6.5707°E)
Time: 10:56:27
(UTC+00:00)

Daily predictions for brighter satellites

Satellite Brightness Start Highest point End
(mag) Time Altitude Azimuth Time Altitude Azimuth Time Altitude Azimuth
BREEZE-M DEB (TANK) 3.4 19:26:53 10° SSW 19:29:57 42° SE 19:38:38 10° ENE
SL-16 R/B 2.7 19:35:04 10° NNW 19:40:33 46° NE 19:46:00 10° SE
ATLAS 5 CENTAUR R/B 4.3 19:40:23 10° NNW 19:43:39 17° NNE 19:47:14 10° ENE
Terra 3.9 19:42:12 10° E 19:44:07 12° NE 19:46:00 10° NNE
RESURS DK-1 3.7 19:40:43 10° SW 19:44:44 46° WNW 19:48:46 10° NNE
Meteor 2-3 Rocket 4.2 19:41:23 10° SSE 19:46:41 43° E 19:52:04 10° NNE
Cosmos 332 Rocket 3.9 19:42:28 10° NNW 19:47:22 70° ENE 19:52:15 10° SSE
SPOT 3 Rocket 4.0 19:42:44 10° SE 19:47:45 49° ENE 19:52:46 10° N
Cosmos 1933 3.7 19:48:36 10° N 19:52:33 48° ENE 19:56:26 10° SSE
Cosmos 1271 Rocket 3.3 19:49:58 10° N 19:53:48 43° ENE 19:57:37 10° SSE
Gbstr 26 Del rocket 2.6 19:50:44 10° WNW 19:54:28 81° SSW 19:58:12 11° ESE
MOS 1 4.5 19:49:01 10° S 19:54:40 77° WSW 20:00:22 10° NNW
Cosmos 1538 Rocket 4.1 19:50:32 10° SSW 19:55:44 86° WNW 20:00:57 10° NNE
IRS-1A Rocket 4.4 19:50:38 10° S 19:56:08 77° WSW 20:01:41 10° NNW
OBJECT-B 3.2 19:54:25 10° SSW 19:57:04 23° W 19:59:44 10° NW
USA 186 4.5 19:58:56 10° SW 20:00:42 15° W 20:02:23 10° WNW
SPOT 5 4.3 19:57:40 10° ESE 20:00:51 20° ENE 20:04:06 10° NNE
IGS 5A 3.4 19:57:00 10° SSE 20:01:08 79° ENE 20:05:17 10° N
Cosmos 2098 Rocket 2.9 19:57:54 10° SSW 20:01:09 70° W 20:05:06 10° N
ARIANE 5 R/B 4.0 19:58:58 11° ESE 20:02:28 25° ENE 20:06:05 10° N
Meteor 2-19 Rocket 4.4 19:56:32 10° S 20:02:31 67° E 20:08:32 10° NNE
Ariane Rocket 3.4 20:01:46 10° S 20:06:48 65° WSW 20:11:52 10° NNW
Landsat 7 3.8 20:03:32 10° SSE 20:08:17 82° ENE 20:13:05 10° NNW
Cosmos 1782 3.3 20:04:37 10° N 20:08:29 43° ENE 20:11:44 13° SE
Cosmos 2082 Rocket 3.7 20:07:17 10° SW 20:12:37 42° NW 20:18:00 10° NNE
Cosmos 304 Rocket 3.9 20:08:07 10° NNW 20:12:55 75° WSW 20:17:40 10° SSE
ATLAS 3B R/B 3.7 20:12:49 10° NW 20:19:31 45° WSW 20:26:27 10° S
Cosmos 2360 Rocket 2.8 20:14:14 10° NNW 20:19:37 43° NE 20:23:55 15° ESE
ATLAS 2AS CENTAUR R/B 4.4 20:14:16 10° WSW 20:21:43 42° NW 20:28:55 10° NE
MetOp-B 4.1 20:18:48 10° SSE 20:24:07 86° ENE 20:29:32 10° NNW
Cosmos 1092 Rocket 4.0 20:20:01 10° S 20:26:18 86° E 20:32:39 10° N
ISS -1.5 20:28:02 10° W 20:30:15 16° SW 20:32:13 11° S
Cosmos 2151 3.7 20:27:02 10° SSW 20:31:13 56° WNW 20:35:26 10° N
NOSS 2-1 (C) 3.2 20:28:07 10° SSW 20:31:16 40° ESE 20:34:24 10° NE
ERS-2 3.3 20:30:51 10° N 20:34:19 43° WNW 20:37:47 10° SW
Cosmos 2026 Rocket 4.0 20:28:58 10° S 20:35:18 81° E 20:41:34 10° N
Cosmos 2084 3.2 20:32:46 10° SSW 20:36:47 64° SE 20:40:54 10° NE
COSMOS 2455 3.9 20:34:51 18° SE 20:37:21 24° ESE 20:41:59 10° NE
Cosmos 1812 3.1 20:34:49 10° N 20:38:34 46° ENE 20:40:31 24° SE
NOSS 2-1 (D) 2.9 20:35:46 10° SSW 20:39:00 50° SE 20:42:14 10° NE
GP-B 3.0 20:35:54 10° N 20:40:22 78° E 20:44:01 15° S
Cosmos 1980 Rocket 4.4 20:36:34 10° NW 20:40:31 20° W 20:44:28 10° SW
Cosmos 2333 Rocket 3.3 20:35:31 10° NNW 20:40:38 34° NE 20:44:24 16° ESE
Cosmos 923 Rocket 4.2 20:36:32 10° SSW 20:41:53 78° WNW 20:47:16 10° NNE
BREEZE-M DEB (TANK) 4.2 20:39:07 10° WNW 20:42:41 53° SSW 20:49:45 18° SE
SPOT 1/Viking Rocket 3.7 20:38:27 13° S 20:43:06 75° WSW 20:48:21 10° NNW
ERS-1 Rocket 3.3 20:40:25 21° SE 20:43:39 53° ENE 20:48:32 10° N
USA 245 3.6 20:42:07 17° SSE 20:45:52 83° WSW 20:49:46 10° NNW
SL-27 R/B 2.8 20:44:42 25° SSE 20:46:20 43° ESE 20:49:47 10° NNE
Okean 3 Rocket 3.5 20:48:05 14° S 20:51:58 81° E 20:56:31 10° N
USA 276 3.7 20:49:58 10° W 20:52:29 22° SW 20:53:10 20° SSW
Cosmos 2237 Rocket 4.4 20:49:37 10° N 20:52:48 15° NE 20:55:57 10° ENE
Cosmos 1408 Rocket 4.0 20:50:55 26° SSE 20:52:54 43° E 20:57:00 10° NNE
Cosmos 2056 Rocket 3.5 20:47:40 10° NNW 20:53:04 80° ENE 20:56:16 24° SSE
Cosmos 2322 Rocket 2.4 20:48:27 10° NNW 20:54:02 68° WSW 20:57:55 20° S
Meteor 2-14 Rocket 4.5 20:48:52 14° S 20:54:03 65° E 21:00:09 10° NNE
CARTOSAT-1 3.7 20:59:31 23° S 21:02:10 73° WSW 21:06:31 10° NNW
Meteor 1-10 Rocket 4.3 20:58:46 10° N 21:04:18 63° ENE 21:07:16 27° SSE
USA 234 4.5 20:58:48 10° ENE 21:04:46 39° N 21:10:44 10° NW
Spot 2 Rocket 3.7 21:03:04 21° S 21:06:33 71° WSW 21:11:40 10° NNW
Cosmos 2219 Rocket 2.8 21:06:13 10° NNW 21:11:36 45° NE 21:14:26 25° ESE
Resurs 01 Rocket 3.8 21:10:19 10° SW 21:13:40 21° W 21:17:03 10° NW
Cosmos 1371 Rocket 4.4 21:09:31 10° NNW 21:14:51 62° WSW 21:17:55 25° S
BREEZE M DEB (TANK) 4.0 21:11:20 10° SW 21:15:18 61° SSE 21:39:42 10° ENE
Cosmos 1680 Rocket 4.2 21:10:46 10° SW 21:15:56 54° WNW 21:21:06 10° NNE
Cosmos 2112 Rocket 4.5 21:11:10 10° SW 21:16:25 62° WNW 21:21:38 10° NNE
Cosmos 1515 Rocket 3.5 21:14:28 10° N 21:18:56 83° E 21:20:37 37° SSE
Cosmos 1151 Rocket 4.1 21:14:49 10° NNW 21:18:57 42° W 21:21:48 18° SSW
Terra 1.7 21:19:00 34° SSE 21:21:05 82° ENE 21:25:52 10° NNW
Cosmos 1553 Rocket 4.1 21:16:16 10° NNW 21:22:19 70° W 21:26:23 22° S
Cosmos 2266 Rocket 4.0 21:19:57 28° SSE 21:23:11 61° E 21:29:20 10° NNE
Cosmos 2285 Rocket 4.4 21:17:04 10° NNW 21:23:12 50° ENE 21:26:17 28° ESE
SL-16 R/B 3.6 21:19:32 10° NW 21:24:28 31° WSW 21:28:20 15° SSW
Cosmos 2315 Rocket 4.4 21:21:59 10° N 21:28:09 52° ENE 21:30:56 31° SE
ATLAS 5 CENTAUR R/B 3.0 21:24:16 10° NNW 21:29:29 46° NE 21:33:06 23° ESE
Cosmos 2333 4.1 21:25:17 10° NNW 21:30:55 84° ENE 21:33:17 37° SSE
Cosmos 2228 Rocket 3.5 21:30:03 10° N 21:34:21 49° ENE 21:35:16 42° ESE
NOSS 2-1 (E) 4.0 21:34:06 10° WSW 21:37:15 44° NW 21:40:36 10° NNE
SPOT 5 3.3 21:36:48 29° SSW 21:38:38 46° W 21:42:55 10° NNW
ARIANE 5 R/B 3.7 21:36:31 23° SSW 21:38:45 38° W 21:42:55 10° NNW
COSMOS 2428 3.0 21:33:36 10° NNW 21:39:15 59° ENE 21:41:31 35° ESE
Cosmos 1862 4.3 21:39:48 21° SW 21:42:03 43° WNW 21:45:53 10° N
Cosmos 883 Rocket 4.5 21:36:48 10° N 21:43:04 77° E 21:45:47 36° SSE
NOSS 3-1 (C) 4.1 21:37:23 10° NW 21:44:54 81° SW 21:49:23 32° SSE
Cosmos 292 Rocket 4.1 21:40:58 10° NNW 21:45:38 56° WSW 21:47:10 38° SSW
IRIDIUM 106 4.4 21:41:49 10° N 21:47:01 63° E 21:48:29 44° SE
Cosmos 1048 Rocket 4.1 21:48:39 46° SE 21:49:36 53° ESE 21:54:36 10° NNE
S3M 4.4 21:48:08 10° NNW 21:54:26 60° W 21:57:51 28° SSW
Cosmos 1655 Rocket 4.2 21:54:13 24° SSW 21:58:16 70° W 22:04:41 10° N
COSMOS 2487 2.6 22:00:10 68° N 22:00:10 68° N 22:03:13 10° NNE
ALOS 2 4.1 21:59:23 23° E 22:00:09 24° ENE 22:03:43 10° N
USA 229 DEB 3.9 21:53:30 10° NW 22:00:51 86° NE 22:04:27 36° SE
USA 229 3.9 21:53:36 10° NW 22:00:57 85° NE 22:04:33 36° SE
Cosmos 972 Rocket 3.9 21:59:17 41° SSW 22:01:12 87° ESE 22:06:12 10° NNE
Cosmos 1805 Rocket 3.4 22:02:11 65° SSE 22:02:41 74° E 22:07:07 10° NNE
Cosmos 2360 Rocket 3.3 21:58:30 10° NW 22:03:29 33° WSW 22:05:41 25° SW
Cosmos 2084 Rocket 4.3 22:04:19 10° NNW 22:08:19 42° NE 22:09:18 36° ENE
USA 267 3.3 22:06:29 10° ENE 22:12:50 51° SE 22:14:47 39° S
Cosmos 1500 Rocket 4.3 22:11:54 35° SW 22:13:20 49° WNW 22:17:41 10° N
Cosmos 1980 4.4 22:10:08 10° NNW 22:15:36 46° NE 22:17:31 34° ESE
NOSS 0 Rocket 4.1 22:10:34 10° NNW 22:16:48 68° ENE 22:18:54 42° SE
NOSS 3-1 (A) 4.1 22:13:52 10° NW 22:21:24 79° SW 22:25:00 39° SSE
COSMOS 2455 3.1 22:17:53 16° SW 22:22:44 68° NW 22:28:46 10° NNE
Meteor 1-27 Rocket 4.4 22:18:21 10° NNW 22:23:46 48° W 22:25:47 34° SW
Lacrosse 5 3.0 22:25:50 30° E 22:25:50 30° E 22:28:49 10° ENE
Meteor 1-20 Rocket 4.1 22:23:03 52° S 22:24:32 86° E 22:30:17 10° NNE
Cosmos 2333 Rocket 2.8 22:19:42 10° NW 22:25:04 45° WSW 22:26:23 38° SW
Cosmos 1452 Rocket 4.0 22:20:08 10° NNW 22:25:12 50° WSW 22:26:16 43° SW
Nadezhda 2 Rocket 4.5 22:23:24 47° SSE 22:25:17 74° E 22:31:43 10° NNE
H-2A R/B 4.4 22:21:51 10° N 22:25:51 43° WNW 22:27:05 34° WSW
COBE Rocket 3.6 22:26:51 71° S 22:27:21 86° WSW 22:32:06 10° NNW
Cosmos 972 4.5 22:28:19 57° S 22:29:26 80° ESE 22:34:36 10° NNE
BREEZE-M R/B 3.3 22:27:06 10° WSW 22:31:56 40° ENE 22:35:04 10° ENE
Cosmos 2297 Rocket 2.9 22:32:07 36° ESE 22:32:07 36° ESE 22:37:08 10° NE
Cosmos 2322 4.4 22:26:47 10° NW 22:32:09 42° WSW 22:33:25 37° SW
Cosmos 1500 4.0 22:34:30 44° NE 22:34:30 44° NE 22:37:28 10° NNE
Sich 1 3.1 22:34:10 64° WSW 22:34:30 67° W 22:38:50 10° N
Cosmos 1244 Rocket 4.4 22:34:47 51° S 22:36:26 82° E 22:42:40 10° N
Cosmos 2237 Rocket 2.4 22:32:25 10° NNW 22:38:05 62° ENE 22:39:29 47° ESE
Cosmos 1470 Rocket 4.4 22:43:08 38° ENE 22:43:08 38° ENE 22:46:38 10° NNE
Cosmos 1633 Rocket 3.1 22:44:03 71° ENE 22:44:03 71° ENE 22:48:10 10° NNE
BREEZE-M DEB (TANK) 4.0 22:40:36 10° WNW 22:42:20 21° W 22:42:20 21° W
Cosmos 2227 Rocket 3.0 22:44:30 34° E 22:44:30 34° E 22:49:19 10° NE
USA 234 3.5 22:42:59 23° ESE 22:47:12 68° NNE 22:53:43 10° NW
Cosmos 1110 Rocket 4.1 22:42:18 10° NNW 22:47:33 61° WSW 22:48:10 56° SW
APEX 4.3 22:48:05 51° SSW 22:49:42 90° ESE 22:56:26 10° NNE
Cosmos 1331 Rocket 4.0 22:44:51 10° NNW 22:50:02 64° WSW 22:50:32 60° SW
Cosmos 1666 Rocket 3.5 22:50:45 78° W 22:50:46 78° W 22:55:14 10° N
Cosmos 1340 Rocket 4.3 22:54:24 26° ENE 22:54:24 26° ENE 22:56:50 10° NNE
Cosmos 2219 Rocket 3.2 22:50:30 10° NW 22:55:22 32° WSW 22:56:08 30° WSW
NOSS 2-2 (E) 4.4 22:53:20 10° NW 22:58:45 86° NE 23:00:50 48° SE
Terra 4.2 22:57:53 11° WSW 22:59:26 13° W 23:01:30 10° WNW
Spot 4 4.2 23:03:05 50° WSW 23:03:19 51° W 23:08:03 10° NNW
SL-16 R/B 3.2 23:02:10 10° NNW 23:07:31 41° NE 23:09:38 30° E
Meteor 1-18 Rocket 4.4 23:04:02 10° NNW 23:09:48 63° W 23:10:44 55° SW
SL-08 R/B 4.5 23:11:22 52° SSW 23:12:54 75° W 23:19:05 10° N
ATLAS 5 CENTAUR R/B 2.9 23:08:51 10° NW 23:14:14 43° WSW 23:14:35 43° SW
Cosmos 1862 Rocket 3.9 23:10:09 10° NNW 23:14:06 57° WNW 23:14:06 57° WNW
COSMOS 2428 4.1 23:18:37 10° NW 23:23:05 24° WSW 23:23:31 24° WSW
NOSS 2-2 (C) 4.3 23:18:21 10° NW 23:23:44 80° SW 23:25:11 57° SSE
Meteor 2-4 Rocket 3.8 23:18:12 10° NNW 23:24:07 71° W 23:24:59 61° SSW
Cosmos 1666 3.4 23:26:25 52° NNW 23:26:25 52° NNW 23:29:28 10° N
Meteor 1-11 Rocket 4.1 23:25:58 46° ESE 23:26:25 47° E 23:31:42 10° NNE
Cosmos 1703 Rocket 3.7 23:25:36 10° N 23:29:38 66° NE 23:29:38 66° NE
Cosmos 1709 Rocket 4.1 23:30:39 55° SE 23:31:53 67° E 23:38:13 10° NNE
PSLV R/B 4.2 23:29:41 10° NNE 23:34:07 51° E 23:34:07 51° E
Cosmos 1992 Rocket 4.0 23:30:54 10° NNW 23:36:09 73° ENE 23:36:41 67° ESE
ALOS 2 3.6 23:36:46 37° W 23:36:46 37° W 23:40:25 10° NNW
Meteor 1-5 Rocket 4.3 23:35:45 60° SW 23:36:45 74° WNW 23:42:40 10° N
Cosmos 909 Rocket 4.2 23:36:15 55° S 23:37:45 73° ESE 23:45:28 10° NE
Cosmos 1745 Rocket 4.1 23:39:17 51° SW 23:40:44 67° W 23:47:03 10° N
Cosmos 2219 3.2 23:42:23 62° SW 23:43:22 81° WNW 23:49:10 10° NNE
CZ-2D R/B 4.3 23:41:34 10° ENE 23:44:11 13° E 23:45:32 12° ESE
Cosmos 1066 Rocket 4.3 23:41:48 10° N 23:47:42 78° ENE 23:48:43 61° SE
Cosmos 1269 Rocket 4.5 23:47:42 47° WSW 23:48:41 54° WNW 23:53:53 10° NNE
Meteor 1-13 Rocket 4.1 23:45:56 10° NNW 23:51:43 85° W 23:52:26 69° S
Timation 1 Rocket 4.2 23:51:21 65° SSW 23:52:20 87° ESE 23:58:22 10° NNE
